DW7756 Weather Reports


Display with metric or nautical units.
time (UTC)temp
F
wind
direction
speed
MPH
gust
MPH
rain 1hr
in
rain 24hr
in
rain mn
in
humidity
%
barometer
mb
20260906113041 75 0 0.0 1.0 0.00 0.00 0.00 90 1013.2
20260906111538 75 0 0.0 2.0 0.00 0.00 0.00 90 1013.0
20260906110036 75 0 0.0 0.0 0.00 0.00 0.00 90 1012.8
20260906104538 75 207 0.0 2.0 0.00 0.00 0.00 90 1012.6
20260906103036 75 0 0.0 2.0 0.00 0.00 0.00 89 1012.3
20260906101537 75 0 0.0 0.0 0.00 0.00 0.00 89 1012.2
20260906100039 75 0 0.0 2.0 0.00 0.00 0.00 89 1011.8
20260906094536 75 0 0.0 2.0 0.00 0.00 0.00 89 1011.6
20260906093040 75 0 0.0 2.0 0.00 0.00 0.00 89 1011.8
20260906091554 75 0 0.0 0.0 0.00 0.00 0.00 89 1011.7
20260906090035 75 0 0.0 0.0 0.00 0.00 0.00 89 1011.7
20260906084536 75 0 0.0 2.0 0.00 0.00 0.00 89 1011.8
20260906083037 75 0 0.0 2.0 0.00 0.00 0.00 89 1011.6
20260906081541 75 0 0.0 2.0 0.00 0.00 0.00 89 1011.4
20260906080043 75 211 1.0 3.0 0.00 0.00 0.00 88 1011.3
20260906074546 75 144 1.0 7.0 0.00 0.00 0.00 88 1011.3
20260906073039 75 181 2.0 5.0 0.00 0.00 0.00 88 1011.2
20260906071534 75 167 2.0 5.0 0.00 0.00 0.00 88 1011.5
20260906070035 76 0 0.0 3.0 0.00 0.00 0.00 88 1011.7
20260906064537 76 200 0.0 3.0 0.00 0.00 0.00 88 1011.9
20260906063039 76 221 1.0 2.0 0.00 0.00 0.00 88 1012.0
20260906061538 76 0 0.0 3.0 0.00 0.00 0.00 87 1012.5
20260906060036 76 0 0.0 2.0 0.00 0.00 0.00 87 1012.5
20260906054541 76 190 1.0 3.0 0.00 0.00 0.00 87 1012.7
20260906053036 76 0 0.0 2.0 0.00 0.00 0.00 87 1012.8
20260906051538 76 0 0.0 2.0 0.00 0.00 0.00 87 1013.1
20260906050049 76 0 0.0 2.0 0.00 0.00 0.00 87 1013.2
20260906044538 76 287 1.0 5.0 0.00 0.00 0.00 87 1013.2
20260906043037 76 0 0.0 0.0 0.00 0.00 0.00 86 1013.1
20260906041537 76 0 0.0 2.0 0.00 0.00 0.00 86 1013.3
20260906040042 76 0 1.0 2.0 0.00 0.00 0.00 86 1013.2
20260906034536 76 0 0.0 4.0 0.00 0.01 0.00 86 1013.2
20260906033046 76 182 1.0 5.0 0.00 0.01 0.00 86 1013.3
20260906031537 76 209 3.0 7.0 0.00 0.01 0.00 86 1013.4
20260906030044 76 213 2.0 6.0 0.00 0.01 0.00 85 1013.6
20260906024545 76 181 2.0 5.0 0.00 0.18 0.00 85 1013.4
20260906023048 76 169 1.0 7.0 0.00 0.18 0.00 85 1013.5
20260906021536 76 154 1.0 5.0 0.00 0.18 0.00 85 1013.5
20260906020051 76 171 2.0 6.0 0.00 0.18 0.00 85 1013.5
20260906014540 76 179 2.0 4.0 0.00 0.18 0.00 84 1013.4
20260906013049 76 0 0.0 2.0 0.00 0.18 0.00 84 1013.5
20260906011556 76 165 0.0 5.0 0.00 0.18 0.00 84 1013.2
20260906010042 77 181 2.0 5.0 0.00 0.18 0.00 83 1013.0
20260906004539 77 216 1.0 9.0 0.00 0.21 0.00 83 1013.0
20260906003039 78 216 2.0 7.0 0.00 0.21 0.00 83 1012.9
20260906001537 78 224 3.0 5.0 0.00 0.21 0.00 82 1012.9
20260906000050 79 0 0.0 2.0 0.00 0.21 0.00 82 1012.6
20260905234538 79 107 0.0 2.0 0.00 0.23 0.00 81 1012.7
20260905233041 79 0 0.0 2.0 0.00 0.23 0.00 81 1012.9
20260905231538 79 0 0.0 2.0 0.00 0.23 0.00 79 1012.9
20260905230040 79 0 0.0 3.0 0.00 0.23 0.00 79 1012.9
20260905224548 80 88 0.0 4.0 0.00 0.24 0.00 79 1013.1
20260905223038 81 94 1.0 7.0 0.00 0.24 0.00 77 1013.3
20260905221537 82 0 0.0 3.0 0.00 0.24 0.00 77 1013.4
20260905220040 83 99 0.0 4.0 0.00 0.24 0.00 76 1013.0
20260905214537 84 36 1.0 6.0 0.00 0.24 0.00 74 1012.7
20260905213037 85 44 2.0 6.0 0.00 0.24 0.00 74 1013.3
20260905211541 86 15 1.0 8.0 0.00 0.24 0.00 74 1012.5
20260905210036 86 9 4.0 9.0 0.00 0.24 0.00 72 1012.9
20260905204543 88 5 1.0 14.0 0.00 0.24 0.00 70 1012.5
20260905203040 94 9 2.0 7.0 0.00 0.24 0.00 61 1012.7
20260905201536 94 182 1.0 6.0 0.00 0.24 0.00 57 1012.3
20260905200041 95 308 0.0 6.0 0.00 0.24 0.00 58 1012.3
20260905194539 96 241 2.0 7.0 0.00 0.24 0.00 56 1012.4
20260905193035 95 197 2.0 6.0 0.00 0.24 0.00 58 1012.5
20260905191537 94 273 1.0 5.0 0.00 0.24 0.00 61 1012.5
20260905190035 94 21 2.0 9.0 0.00 0.24 0.00 59 1012.7
20260905184559 94 235 2.0 9.0 0.00 0.24 0.00 60 1012.7
20260905183045 94 215 2.0 9.0 0.00 0.24 0.00 63 1012.7
20260905181546 93 299 4.0 8.0 0.00 0.24 0.00 63 1012.9
20260905180037 93 191 3.0 8.0 0.00 0.24 0.00 64 1013.1
20260905174538 92 259 3.0 10.0 0.00 0.24 0.00 66 1013.2
20260905173036 92 265 2.0 11.0 0.00 0.24 0.00 67 1013.4
20260905171535 90 274 5.0 10.0 0.00 0.24 0.00 67 1013.5
20260905170036 90 243 5.0 11.0 0.00 0.24 0.00 67 1013.9
20260905164539 89 221 3.0 12.0 0.00 0.24 0.00 70 1014.1
20260905163036 88 284 4.0 10.0 0.00 0.24 0.00 72 1014.4
20260905161541 88 236 3.0 9.0 0.00 0.24 0.00 72 1014.5
20260905160039 87 265 3.0 8.0 0.00 0.24 0.00 74 1014.6
20260905154600 86 285 3.0 7.0 0.00 0.24 0.00 82 1014.9
20260905153039 84 240 3.0 6.0 0.00 0.24 0.00 87 1015.1
20260905151541 82 233 1.0 4.0 0.00 0.24 0.00 90 1015.2
20260905150038 81 304 1.0 3.0 0.00 0.24 0.00 91 1015.2
20260905144539 80 212 2.0 4.0 0.00 0.24 0.00 91 1015.2
20260905143036 79 250 2.0 4.0 0.00 0.24 0.00 91 1015.1
20260905141540 79 230 0.0 4.0 0.00 0.24 0.00 92 1015.0
20260905140039 79 226 1.0 5.0 0.00 0.24 0.00 92 1014.9
20260905134538 78 238 1.0 4.0 0.00 0.24 0.00 92 1014.9
20260905133047 78 217 1.0 3.0 0.00 0.24 0.00 92 1014.8
20260905131541 77 250 1.0 5.0 0.00 0.24 0.00 92 1014.8
20260905130046 77 230 2.0 4.0 0.00 0.24 0.00 91 1014.7
20260905124539 77 223 2.0 5.0 0.00 0.24 0.00 91 1014.9
20260905123035 76 242 2.0 3.0 0.00 0.24 0.00 91 1014.6
20260905121537 76 0 0.0 4.0 0.00 0.24 0.00 91 1014.7
20260905120042 76 191 1.0 2.0 0.00 0.24 0.00 91 1014.6
20260905114539 76 0 0.0 2.0 0.00 0.24 0.00 91 1014.6